AD5L Weather Reports


time (UTC)temp
F
wind
direction
speed
knots
gust
knots
rain 1hr
in
rain 24hr
in
rain mn
in
humidity
%
barometer
mb
20260506002336 84 233 3.5 7.8 0.00 0.00 0.00 75 1006.3
20260506001327 83 124 4.3 6.1 0.00 0.00 0.00 76 1006.3
20260506000339 83 91 2.6 7.0 0.00 0.00 0.00 76 1006.2
20260505235328 84 181 0.9 6.1 0.00 0.00 0.00 75 1006.3
20260505234340 84 129 2.6 7.0 0.00 0.00 0.00 75 1006.2
20260505233330 84 123 3.5 8.7 0.00 0.00 0.00 74 1006.1
20260505232341 84 243 3.5 8.7 0.00 0.00 0.00 73 1006.1
20260505231330 85 172 3.5 6.1 0.00 0.00 0.00 73 1006.0
20260505230339 85 207 4.3 7.8 0.00 0.00 0.00 72 1005.9
20260505225330 85 126 2.6 8.7 0.00 0.00 0.00 73 1005.8
20260505224337 85 193 4.3 11.3 0.00 0.00 0.00 73 1005.7
20260505223328 85 127 3.5 13.0 0.00 0.00 0.00 73 1005.9
20260505222335 85 214 4.3 12.2 0.00 0.00 0.00 72 1005.7
20260505221326 85 162 4.3 11.3 0.00 0.00 0.00 72 1005.7
20260505220338 86 127 4.3 9.6 0.00 0.00 0.00 71 1005.8
20260505215348 86 221 4.3 10.4 0.00 0.00 0.00 71 1005.8
20260505214339 86 116 6.1 13.0 0.00 0.00 0.00 71 1006.0
20260505213350 87 154 4.3 10.4 0.00 0.00 0.00 71 1005.9
20260505212331 87 121 3.5 10.4 0.00 0.00 0.00 70 1006.2
20260505211322 87 245 5.2 12.2 0.00 0.00 0.00 71 1006.4
20260505210329 86 245 3.5 9.6 0.00 0.00 0.00 72 1006.5
20260505205339 86 109 5.2 13.9 0.00 0.00 0.00 72 1006.5
20260505204331 86 179 3.5 11.3 0.00 0.00 0.00 72 1006.7
20260505203322 85 115 6.1 11.3 0.00 0.00 0.00 72 1006.6
20260505202334 86 129 5.2 10.4 0.00 0.00 0.00 71 1006.9
20260505201324 87 217 4.3 9.6 0.00 0.00 0.00 69 1007.0
20260505200333 87 156 4.3 11.3 0.00 0.00 0.00 68 1007.1
20260505195324 86 130 4.3 10.4 0.00 0.00 0.00 71 1007.1
20260505194336 85 231 7.0 13.9 0.00 0.00 0.00 70 1007.4
20260505193327 85 157 4.3 12.2 0.00 0.00 0.00 72 1007.5
20260505192337 85 206 4.3 8.7 0.00 0.00 0.00 71 1007.6
20260505191328 84 158 5.2 11.3 0.00 0.00 0.00 73 1007.7
20260505190338 84 153 4.3 9.6 0.00 0.00 0.00 72 1007.7
20260505185329 83 169 6.1 12.2 0.00 0.00 0.00 72 1007.7
20260505184340 84 146 4.3 11.3 0.00 0.00 0.00 72 1007.9
20260505183323 82 250 4.3 10.4 0.00 0.00 0.00 74 1008.1
20260505182343 82 253 5.2 12.2 0.00 0.00 0.00 74 1008.3
20260505181325 81 201 2.6 12.2 0.00 0.00 0.00 77 1008.5
20260505180336 81 218 4.3 10.4 0.00 0.00 0.00 77 1008.5
20260505175328 80 207 4.3 7.8 0.00 0.00 0.00 79 1008.6
20260505174337 79 243 6.1 11.3 0.00 0.00 0.00 80 1008.8
20260505173328 78 238 6.1 12.2 0.00 0.00 0.00 81 1008.9
20260505172340 78 240 5.2 13.9 0.00 0.00 0.00 82 1008.8
20260505171330 77 155 4.3 11.3 0.00 0.00 0.00 83 1008.9
20260505170322 77 221 5.2 10.4 0.00 0.00 0.00 84 1008.9
20260505165333 76 250 2.6 7.8 0.00 0.00 0.00 85 1008.9
20260505164323 76 222 2.6 10.4 0.00 0.00 0.00 85 1008.9
20260505163330 76 231 2.6 7.8 0.00 0.00 0.00 86 1008.9
20260505162322 75 139 3.5 8.7 0.00 0.00 0.00 87 1009.0
20260505161334 74 212 2.6 8.7 0.00 0.00 0.00 87 1009.0
20260505160345 74 146 4.3 10.4 0.00 0.00 0.00 87 1008.9
20260505153324 73 194 4.3 7.8 0.00 0.00 0.00 89 1008.9
20260505152345 73 217 3.5 7.0 0.00 0.00 0.00 89 1008.9
20260505151327 73 235 1.7 6.1 0.00 0.00 0.00 90 1009.0
20260505150347 73 212 4.3 9.6 0.00 0.00 0.00 90 1008.9
20260505140340 72 224 5.2 9.6 0.00 0.00 0.00 91 1008.4
20260505124348 71 140 2.6 12.2 0.00 0.00 0.00 91 1008.0
20260505123338 71 206 2.6 9.6 0.00 0.00 0.00 92 1007.8
20260505122345 71 190 3.5 9.6 0.00 0.00 0.00 92 1007.6
20260505121328 70 198 2.6 8.7 0.00 0.00 0.00 92 1007.5
20260505120348 70 136 1.7 7.0 0.00 0.00 0.00 92 1007.4
20260505115329 70 124 4.3 9.6 0.00 0.00 0.00 92 1007.1
20260505114341 70 158 5.2 9.6 0.00 0.00 0.00 92 1007.0
20260505113332 71 160 2.6 8.7 0.00 0.00 0.00 91 1007.1
20260505112324 71 160 4.3 7.8 0.00 0.00 0.00 91 1007.1
20260505111334 71 139 2.6 13.0 0.00 0.00 0.00 91 1007.0
20260505110323 71 230 2.6 11.3 0.00 0.00 0.00 91 1007.0
20260505101339 71 188 3.5 6.1 0.00 0.00 0.00 90 1007.6
20260505100330 71 160 3.5 10.4 0.00 0.00 0.00 90 1007.6
20260505095342 71 172 2.6 8.7 0.00 0.00 0.00 91 1007.6
20260505094333 71 146 2.6 9.6 0.00 0.00 0.00 91 1007.6
20260505093345 71 120 2.6 7.0 0.00 0.00 0.00 91 1007.7
20260505092327 71 184 2.6 9.6 0.00 0.00 0.00 90 1007.6
20260505091348 71 237 3.5 9.6 0.00 0.00 0.00 90 1007.7
20260505090330 71 165 5.2 10.4 0.00 0.00 0.00 90 1008.0
20260505085349 71 150 2.6 8.7 0.00 0.00 0.00 90 1007.8
20260505084331 71 131 3.5 10.4 0.00 0.00 0.00 90 1007.9
20260505083323 71 114 4.3 13.0 0.00 0.00 0.00 89 1007.9
20260505082331 71 195 2.6 9.6 0.00 0.00 0.00 89 1008.0
20260505081323 71 168 6.1 13.9 0.00 0.00 0.00 89 1008.2
20260505080333 71 160 5.2 10.4 0.00 0.00 0.00 89 1008.1
20260505075325 71 127 4.3 11.3 0.00 0.00 0.00 89 1008.1
20260505074332 71 203 6.1 12.2 0.00 0.00 0.00 89 1008.3
20260505073322 71 162 4.3 16.5 0.00 0.00 0.00 89 1008.4
20260505072333 71 217 6.1 11.3 0.00 0.00 0.00 89 1008.4
20260505071325 71 148 6.1 13.0 0.00 0.00 0.00 89 1008.6
20260505070335 71 122 4.3 12.2 0.00 0.00 0.00 89 1008.7
20260505065346 71 137 4.3 9.6 0.00 0.00 0.00 89 1008.8
20260505064338 71 184 5.2 13.9 0.00 0.00 0.00 88 1008.9
20260505063349 71 210 6.1 11.3 0.00 0.00 0.00 88 1008.8
20260505062341 72 173 5.2 13.9 0.00 0.00 0.00 88 1008.9
20260505061322 72 202 3.5 11.3 0.00 0.00 0.00 88 1009.0
20260505060332 72 178 5.2 13.0 0.00 0.00 0.00 88 1009.1
20260505055323 72 186 5.2 14.8 0.00 0.00 0.00 88 1009.1
20260505054333 72 179 5.2 13.9 0.00 0.00 0.00 88 1009.1
20260505053324 72 170 4.3 13.0 0.00 0.00 0.00 87 1009.0
20260505052336 72 160 5.2 16.5 0.00 0.00 0.00 87 1008.9
20260505051327 72 169 5.2 13.0 0.00 0.00 0.00 87 1009.1
20260505050337 72 99 7.0 13.9 0.00 0.00 0.00 87 1008.9
20260505041334 73 154 3.5 11.3 0.00 0.00 0.00 85 1009.0
20260505040326 73 150 5.2 10.4 0.00 0.00 0.00 84 1009.0
20260505035337 74 169 2.6 7.0 0.00 0.00 0.00 84 1009.1
20260505034345 74 192 3.5 9.6 0.00 0.00 0.00 83 1009.1
20260505033336 74 112 4.3 8.7 0.00 0.00 0.00 83 1009.1
20260505032343 74 91 2.6 9.6 0.00 0.00 0.00 82 1008.9
20260505031325 75 214 3.5 8.7 0.00 0.00 0.00 82 1008.9
20260505030345 75 165 5.2 10.4 0.00 0.00 0.00 81 1009.0
20260505025327 75 137 3.5 8.7 0.00 0.00 0.00 80 1008.9
20260505024347 75 110 3.5 10.4 0.00 0.00 0.00 78 1008.9
20260505023324 76 129 1.7 7.0 0.00 0.00 0.00 77 1008.9
20260505022334 76 143 2.6 7.8 0.00 0.00 0.00 76 1008.8
20260505021326 76 168 4.3 8.7 0.00 0.00 0.00 75 1008.8
20260505020336 76 150 3.5 9.6 0.00 0.00 0.00 75 1008.6
20260505015327 76 219 3.5 7.8 0.00 0.00 0.00 74 1008.5
20260505014338 76 140 1.7 5.2 0.00 0.00 0.00 74 1008.6
20260505013330 77 226 1.7 7.8 0.00 0.00 0.00 73 1008.8
20260505012341 77 134 2.6 7.0 0.00 0.00 0.00 72 1008.7
20260505011332 77 165 2.6 7.0 0.00 0.00 0.00 71 1008.7
20260505010339 78 174 3.5 7.8 0.00 0.00 0.00 70 1008.7
20260505005332 79 252 5.2 13.0 0.00 0.00 0.00 69 1008.6
20260505004323 79 216 3.5 10.4 0.00 0.00 0.00 68 1008.6
20260505003333 80 119 2.6 7.0 0.00 0.00 0.00 68 1008.6